User: anonymous   Login
Location: Unspecified
(0.0000°N, 0.0000°E)
Time: 07:59:27
(UTC+01:00)
Language:

NOAA 12 - Orbit

View from above orbital plane
View from above orbital plane
View from above satellite
View from above satellite

Ground track
Ground track

The orbit data is extracted from the following two-line orbital elements,

1 21263U 91032A   14298.11868911  .00000161  00000-0  86147-4 0  4744
2 21263 098.6539 323.4017 0013337 215.1254 194.3209 14.25691830219079
Epoch (UTC): 25 October 2014 02:50:54
Eccentricity: 0.0013337
inclination: 98.6539°
perigee height: 796 km
apogee height: 816 km
right ascension of ascending node: 323.4017°
argument of perigee: 215.1254°
revolutions per day: 14.25691830
mean anomaly at epoch: 194.3209°
orbit number at epoch: 21907

The dashed part of the orbit path shows where the satellite is in the earth's shadow,  

DLR